Find Qianfan Jigui 02-11

NORAD ID: 61562 Int'l Des: 2024-185 Owner: YUANX Country: CN Constellation: qianfan operational
LEOCIRCULARPOLAR

リアルタイム位置

3D地球を読み込み中...

Qianfan Jigui 02-11について

説明を読み込み中...

次回通過

Passes for default location (London). Set your location on the main map for personalized predictions.

高度履歴

Loading altitude history...

軌道要素

1 61562U 24185L 26104.23647986 .00000142 00000-0 20154-3 0 9990
2 61562 88.9768 68.6241 0011725 61.3865 298.8464 13.51060364 84338
Epoch: Apr 14, 2026 • Age: 7 hours

現在のステータス

高度 1065.7 km
速度 7.32 km/s
衛星直下点 5.65°N, 33.79°E
打ち上げ日 Oct 15, 2024
運用期間 1.4 years
タイプ internet

技術仕様

分類 Payload
質量 267.00 kg
乾燥質量 267.00 kg
総質量 267.00 kg
長さ 0.30 m
直径 3.00 m
スパン 10.00 m
形状 Box+pan
製造者 GESIH/SECM
バスタイプ Qianfan
フェーズステータス In Orbit
所有者/国 YUANX/CN

Most Searched